Station NABM4 - Naubinway, MI Image indicating link to RSS feed of recent meteorological observations for station NABM4


Conditions at NABM4 as of
(8:40 am EDT)
1240 GMT on 04/19/2024:
     

Click on the graph icon in the table below to see a time series plot of the last five days of that observation.

5-day plot - Wind Direction Wind Direction (WDIR): NW ( 320 deg true )
5-day plot - Wind Speed Wind Speed (WSPD): 2.9 kts
5-day plot - Wind Gust Wind Gust (GST): 6.0 kts
5-day plot - Atmospheric Pressure Atmospheric Pressure (PRES):29.86 in
5-day plot - Air Temperature Air Temperature (ATMP): 38.8 °F
5-day plot - Wind Chill Wind Chill (CHILL): 36.7 °F
5-day plot - Wind Speed at 10 Meters Wind Speed at 10 meters (WSPD10M): 3.9 kts
5-day plot - Wind Speed at 20 Meters Wind Speed at 20 meters (WSPD20M): 3.9 kts
5-day plot -  Wind Speed, Wind Gust and Atmospheric Pressure Combined plot of Wind Speed, Gust, and Air Pressure
Previous observations
TIME
(EDT)
5-day plot - Wind Direction
WDIR
 
5-day plot - Wind Speed
WSPD
kts
5-day plot - Wind Gust
GST
kts
5-day plot - Wave Height
WVHT
ft
5-day plot - Dominant Wave Period
DPD
sec
5-day plot - Average Wave Period
APD
sec
5-day plot - Mean Wave Direction
MWD
 
5-day plot - Atmospheric Pressure
PRES
in
5-day plot - Pressure Tendency
PTDY
in
5-day plot - Air Temperature
ATMP
°F
5-day plot - Water Temperature
WTMP
°F
5-day plot - Dew Point
DEWP
°F
5-day plot - Salinity
SAL
psu
5-day plot - Visibility
VIS
nmi
5-day plot - Tide (above MLLW)
TIDE
ft
2024-04-19 08:30 am NW 4.1 7.0----29.86- 38.7-----
2024-04-19 08:20 amWNW 4.1 7.0----29.86- 38.3-----
2024-04-19 08:10 am NW 5.1 7.0----29.86- 38.3-----
2024-04-19 08:00 am NW 5.1 7.0----29.86+0.01 38.5-----
2024-04-19 07:50 am NW 5.1 7.0----29.86- 38.1-----
2024-04-19 07:40 amWNW 2.9 5.1----29.86- 38.1-----
2024-04-19 07:30 am NW 5.1 8.9----29.86- 38.3-----
2024-04-19 07:20 amWNW 5.1 6.0----29.86- 38.5-----
2024-04-19 07:10 amWNW 5.1 7.0----29.86- 38.7-----
2024-04-19 07:00 amWNW 4.1 6.0----29.86+0.00 38.7-----
2024-04-19 06:50 amWNW 5.1 7.0----29.86- 38.7-----
2024-04-19 06:40 amWNW 4.1 7.0----29.86- 38.8-----
2024-04-19 06:30 am NW 5.1 8.0----29.85- 39.4-----
2024-04-19 06:20 am NW 5.1 7.0----29.85- 39.2-----
2024-04-19 06:10 am NW 4.1 5.1----29.86- 39.6-----
2024-04-19 06:00 amWNW 2.9 6.0----29.85-0.02 39.9-----
2024-04-19 05:50 amNNW 4.1 8.9----29.85- 40.5-----
2024-04-19 05:40 amNNW 4.1 8.0----29.86- 41.0-----
2024-04-19 05:30 am NW 2.9 6.0----29.86- 40.6-----
2024-04-19 05:20 am NW 2.9 5.1----29.86- 40.5-----
2024-04-19 05:10 am NW 2.9 4.1----29.86- 40.8-----
2024-04-19 05:00 amNNW 1.9 4.1----29.85-0.02 41.2-----
2024-04-19 04:50 amNNW 1.9 4.1----29.85- 41.0-----
2024-04-19 04:40 amNNW 2.9 4.1----29.85- 41.2-----
2024-04-19 04:30 am N 1.9 2.9----29.85- 41.4-----
2024-04-19 04:20 am NW 1.0 4.1----29.86- 41.5-----
2024-04-19 04:10 amNNW 1.9 4.1----29.86- 41.5-----
2024-04-19 04:00 amNNW 2.9 4.1----29.86-0.04 41.4-----
2024-04-19 03:50 am- 0.0 4.1----29.86- 41.5-----
2024-04-19 03:40 amNNW 1.9 5.1----29.86- 41.9-----
2024-04-19 03:30 am N 4.1 6.0----29.86- 42.1-----
2024-04-19 03:20 am N 5.1 7.0----29.86- 41.9-----
2024-04-19 03:10 amNNW 5.1 7.0----29.86- 41.7-----
2024-04-19 03:00 am W 2.9 5.1----29.87-0.05 41.4-----
2024-04-19 02:50 am W 1.9 8.0----29.87- 41.2-----
2024-04-19 02:40 amWSW 2.9 7.0----29.87- 41.0-----
2024-04-19 02:30 amSSW 1.9 5.1----29.86- 41.0-----
2024-04-19 02:20 amSSW 4.1 5.1----29.86- 41.0-----
2024-04-19 02:10 am SW 5.1 6.0----29.87- 41.0-----
2024-04-19 02:00 amWSW 2.9 6.0----29.87-0.07 41.0-----
2024-04-19 01:50 am SW 1.9 5.1----29.88- 41.2-----
2024-04-19 01:40 am SW 2.9 5.1----29.89- 41.4-----
2024-04-19 01:30 amWNW 1.0 7.0----29.89- 41.5-----
2024-04-19 01:20 amSSW 7.0 13.0----29.89- 41.7-----
2024-04-19 01:10 amSSW 12.0 13.0----29.89- 41.7-----
2024-04-19 01:00 am SW 9.9 12.0----29.90-0.06 41.9-----
2024-04-19 12:50 am SW 6.0 8.9----29.90- 41.5-----
2024-04-19 12:40 am SW 6.0 8.0----29.91- 41.4-----
2024-04-19 12:30 am SW 6.0 9.9----29.91- 41.5-----
2024-04-19 12:20 am SW 8.9 12.0----29.92- 41.5-----
2024-04-19 12:10 am SW 11.1 12.0----29.92- 42.1-----
2024-04-19 12:00 am SW 8.9 11.1----29.92-0.03 42.4-----
2024-04-18 11:50 pm SW 7.0 8.9----29.93- 42.6-----
2024-04-18 11:40 pm SW 7.0 11.1----29.92- 43.2-----
2024-04-18 11:30 pmWSW 5.1 8.0----29.93- 43.2-----
2024-04-18 11:20 pm SW 4.1 6.0----29.93- 42.3-----
2024-04-18 11:10 pm SW 2.9 5.1----29.94- 41.5-----
2024-04-18 11:00 pm S 4.1 6.0----29.94+0.00 41.5-----
2024-04-18 10:50 pm S 5.1 8.0----29.95- 41.5-----
2024-04-18 10:40 pm S 5.1 7.0----29.95- 41.7-----
2024-04-18 10:30 pmSSW 5.1 6.0----29.95- 41.9-----
2024-04-18 10:20 pm S 4.1 5.1----29.95- 41.7-----
2024-04-18 10:10 pmSSE 4.1 6.0----29.95- 41.7-----
2024-04-18 10:00 pmSSW 4.1 7.0----29.96+0.01 41.9-----
2024-04-18 09:50 pm S 7.0 8.9----29.96- 41.9-----
2024-04-18 09:40 pm S 8.0 8.9----29.96- 41.9-----
2024-04-18 09:30 pm S 8.0 8.0----29.96- 41.7-----
2024-04-18 09:20 pm S 6.0 7.0----29.95- 41.7-----
2024-04-18 09:10 pm S 6.0 7.0----29.95- 41.9-----
2024-04-18 09:00 pm S 5.1 6.0----29.95+0.01 41.9-----
2024-04-18 08:50 pm S 6.0 7.0----29.95- 41.7-----
2024-04-18 08:40 pm S 5.1 7.0----29.95- 42.1-----
2024-04-18 08:30 pm S 5.1 8.9----29.95- 42.1-----
2024-04-18 08:20 pmSSW 7.0 8.9----29.94- 42.3-----
2024-04-18 08:10 pmSSW 7.0 8.9----29.95- 42.3-----
2024-04-18 08:00 pmSSW 8.0 8.9----29.94-0.02 42.3-----
2024-04-18 07:50 pm S 8.0 8.9----29.93- 42.1-----
2024-04-18 07:40 pmSSW 7.0 8.9----29.94- 42.4-----
2024-04-18 07:30 pmSSW 7.0 8.0----29.94- 42.1-----
2024-04-18 07:20 pmSSW 6.0 7.0----29.94- 42.4-----
2024-04-18 07:10 pmSSW 5.1 8.0----29.95- 42.1-----
2024-04-18 07:00 pmSSW 7.0 7.0----29.95+0.00 42.1-----
2024-04-18 06:50 pmSSW 6.0 7.0----29.95- 42.3-----
2024-04-18 06:40 pm SW 4.1 8.0----29.95- 42.3-----
2024-04-18 06:30 pm SW 6.0 8.0----29.96- 42.3-----
2024-04-18 06:20 pmSSW 7.0 8.0----29.96- 42.3-----
2024-04-18 06:10 pmSSW 6.0 7.0----29.95- 42.4-----
2024-04-18 06:00 pmSSW 6.0 8.0----29.94-0.02 42.4-----
2024-04-18 05:50 pmSSW 8.0 9.9----29.95- 42.6-----
2024-04-18 05:40 pm SW 8.0 9.9----29.95- 42.8-----
2024-04-18 05:30 pm SW 8.9 12.0----29.96- 42.8-----
2024-04-18 05:20 pm SW 9.9 14.0----29.96- 42.6-----
2024-04-18 05:10 pm SW 12.0 15.0----29.97- 42.6-----
2024-04-18 05:00 pmSSW 12.0 14.0----29.96-0.02 42.6-----
2024-04-18 04:50 pm SW 9.9 13.0----29.95- 42.8-----
2024-04-18 04:40 pmSSW 11.1 12.0----29.95- 42.8-----
2024-04-18 04:30 pmSSW 12.0 13.0----29.94- 43.2-----
2024-04-18 04:20 pm SW 12.0 14.0----29.95- 43.2-----
2024-04-18 04:10 pm SW 12.0 14.0----29.95- 43.5-----
2024-04-18 04:00 pm SW 13.0 15.0----29.95-0.02 43.7-----
2024-04-18 03:50 pm SW 13.0 17.1----29.96- 43.7-----
2024-04-18 03:40 pm SW 15.0 18.1----29.96- 43.7-----
2024-04-18 03:30 pm SW 14.0 15.9----29.96- 44.1-----
2024-04-18 03:20 pmSSW 12.0 13.0----29.96- 43.2-----
2024-04-18 03:10 pmSSW 11.1 12.0----29.96- 43.5-----
2024-04-18 03:00 pmSSW 9.9 15.0----29.96+0.00 42.8-----
2024-04-18 02:50 pmSSW 13.0 15.0----29.97- 42.8-----
2024-04-18 02:40 pmSSW 12.0 14.0----29.97- 43.0-----
2024-04-18 02:30 pmSSW 12.0 14.0----29.97- 43.0-----
2024-04-18 02:20 pmSSW 11.1 14.0----29.97- 42.8-----
2024-04-18 02:10 pmSSW 13.0 14.0----29.97- 43.0-----
2024-04-18 02:00 pmSSW 13.0 15.9----29.98+0.03 43.0-----
2024-04-18 01:50 pmSSW 8.9 13.0----29.97- 43.2-----
2024-04-18 01:40 pmSSW 11.1 12.0----29.97- 43.5-----
2024-04-18 01:30 pmSSW 11.1 12.0----29.97- 43.5-----
2024-04-18 01:20 pmSSW 9.9 12.0----29.97- 42.6-----
2024-04-18 01:10 pmSSW 8.9 11.1----29.96- 42.4-----
2024-04-18 01:00 pmSSW 8.9 11.1----29.97-0.01 42.3-----
2024-04-18 12:50 pmSSW 8.9 9.9----29.96- 42.6-----
2024-04-18 12:40 pmSSW 8.9 11.1----29.96- 42.1-----
2024-04-18 12:30 pmSSW 8.0 9.9----29.96- 42.1-----
2024-04-18 12:20 pm S 7.0 8.0----29.97- 43.5-----
2024-04-18 12:10 pmSSW 6.0 7.0----29.97- 44.6-----
2024-04-18 12:00 pm SW 4.1 6.0----29.96+0.04 46.8-----
2024-04-18 11:50 am NW 2.9 6.0----29.96- 46.4-----
2024-04-18 11:40 am NW 1.9 7.0----29.95- 45.9-----
2024-04-18 11:30 am NW 5.1 8.9----29.95- 45.0-----
2024-04-18 11:20 amWNW 1.9 4.1----29.95- 45.1-----
2024-04-18 11:10 amWNW 2.9 7.0----29.96- 44.4-----
2024-04-18 11:00 amWNW 6.0 8.9----29.95+0.07 44.1-----
2024-04-18 10:50 am NW 5.1 8.9----29.96- 43.9-----
2024-04-18 10:40 am NW 5.1 12.0----29.96- 43.7-----
2024-04-18 10:30 amWNW 8.0 17.1----29.96- 43.3-----
2024-04-18 10:20 amWNW 9.9 14.0----29.96- 43.0-----
2024-04-18 10:10 amWNW 7.0 15.0----29.97- 42.6-----
2024-04-18 10:00 amWNW 8.0 13.0----29.98+0.12 42.3-----
2024-04-18 09:50 amWNW 8.0 12.0----29.96- 41.9-----
2024-04-18 09:40 amWNW 8.0 15.0----29.95- 41.7-----
2024-04-18 09:30 amWNW 8.9 14.0----29.94- 41.5-----
2024-04-18 09:20 amWNW 8.0 12.0----29.94- 41.4-----
2024-04-18 09:10 amWNW 8.0 12.0----29.92- 41.2-----
2024-04-18 09:00 amWNW 7.0 8.9----29.92+0.10 41.0-----
2024-04-18 08:50 amWNW 6.0 11.1----29.90- 40.8-----